TimeEDT,TemperatureF,Dew PointF,Humidity,Sea Level PressureIn,VisibilityMPH,Wind Direction,Wind SpeedMPH,Gust SpeedMPH,PrecipitationIn,Events,Conditions,WindDirDegrees,DateUTC
12:56 AM,41.0,37.9,89,30.04,10.0,Calm,Calm,-,N/A,,Clear,0,2012-10-18 04:56:00
1:56 AM,39.9,37.9,93,30.06,10.0,Calm,Calm,-,N/A,,Clear,0,2012-10-18 05:56:00
2:56 AM,39.0,37.0,93,30.06,10.0,Calm,Calm,-,N/A,,Clear,0,2012-10-18 06:56:00
3:56 AM,37.9,36.0,93,30.06,10.0,Calm,Calm,-,N/A,,Clear,0,2012-10-18 07:56:00
4:56 AM,36.0,34.0,93,30.06,10.0,Calm,Calm,-,N/A,,Clear,0,2012-10-18 08:56:00
5:56 AM,35.6,33.8,93,30.04,10.0,Calm,Calm,-,N/A,,Clear,0,2012-10-18 09:56:00
6:56 AM,35.1,33.1,92,30.10,10.0,Calm,Calm,-,N/A,,Clear,0,2012-10-18 10:56:00
7:56 AM,36.0,35.1,97,30.12,10.0,Calm,Calm,-,N/A,,Clear,0,2012-10-18 11:56:00
8:56 AM,45.0,41.0,86,30.14,10.0,Calm,Calm,-,N/A,,Clear,0,2012-10-18 12:56:00
9:56 AM,51.8,44.6,76,30.09,10.0,Calm,Calm,-,N/A,,Clear,0,2012-10-18 13:56:00
10:56 AM,59.0,45.0,60,30.13,10.0,SSE,10.4,-,N/A,,Clear,150,2012-10-18 14:56:00
11:56 AM,62.6,42.8,48,30.08,10.0,South,8.1,-,N/A,,Clear,170,2012-10-18 15:56:00
12:56 PM,63.0,42.1,46,30.11,10.0,SE,4.6,-,N/A,,Clear,130,2012-10-18 16:56:00
1:56 PM,64.0,41.0,43,30.10,10.0,SSW,3.5,-,N/A,,Clear,200,2012-10-18 17:56:00
2:56 PM,64.9,43.0,45,30.09,10.0,Variable,3.5,-,N/A,,Clear,0,2012-10-18 18:56:00
3:56 PM,62.1,46.9,58,30.09,10.0,East,12.7,-,N/A,,Clear,80,2012-10-18 19:56:00
4:56 PM,60.1,48.0,64,30.09,10.0,East,9.2,-,N/A,,Clear,90,2012-10-18 20:56:00
5:56 PM,55.0,48.0,77,30.09,10.0,East,5.8,-,N/A,,Clear,80,2012-10-18 21:56:00
6:56 PM,53.1,48.0,83,30.09,10.0,ESE,4.6,-,N/A,,Clear,110,2012-10-18 22:56:00
7:56 PM,52.0,46.9,83,30.12,10.0,SSE,5.8,-,N/A,,Clear,150,2012-10-18 23:56:00
8:56 PM,46.9,45.0,93,30.14,10.0,Calm,Calm,-,N/A,,Clear,0,2012-10-19 00:56:00
9:32 PM,46.4,44.6,93,30.12,10.0,Calm,Calm,-,N/A,,Mostly Cloudy,0,2012-10-19 01:32:00
9:56 PM,48.9,46.0,90,30.16,10.0,Calm,Calm,-,N/A,,Overcast,0,2012-10-19 01:56:00
10:56 PM,48.0,46.0,93,30.16,10.0,Calm,Calm,-,N/A,,Mostly Cloudy,0,2012-10-19 02:56:00
11:09 PM,48.2,44.6,87,30.11,10.0,Calm,Calm,-,N/A,,Mostly Cloudy,0,2012-10-19 03:09:00
11:56 PM,46.9,44.1,90,30.13,10.0,Calm,Calm,-,N/A,,Clear,0,2012-10-19 03:56:00